User: anonymous   Login
Location: Caltech
(34.1382°N, 118.1253°W)
Time: 08:31:16
(UTC-08:00)
Language:

Cosmos 1408 Rocket - Orbit

View from above orbital plane
View from above orbital plane
View from above satellite
View from above satellite

Ground track
Ground track

The orbit data is extracted from the following two-line orbital elements,

1 13553U 82092B   14355.09710449  .00000927  00000-0  10879-3 0   997
2 13553 082.5683 000.8817 0022415 164.6657 255.8413 14.83723363742218
Epoch (UTC): 21 December 2014 02:19:49
Eccentricity: 0.0022415
inclination: 82.5683°
perigee height: 602 km
apogee height: 633 km
right ascension of ascending node: 0.8817°
argument of perigee: 164.6657°
revolutions per day: 14.83723363
mean anomaly at epoch: 255.8413°
orbit number at epoch: 74221

The dashed part of the orbit path shows where the satellite is in the earth's shadow,  

DLR